User: anonymous   Login
Location: Goheenville
(40.9070°N, 79.3720°W)
Time: 23:24:10
(UTC-04:00)
Language:

Cosmos 1727 Rocket - Orbit

View from above orbital plane
View from above orbital plane
View from above satellite
View from above satellite

Ground track
Ground track

The orbit data is extracted from the following two-line orbital elements,

1 16511U 86008B   17086.94511245 -.00000061 +00000-0 -79050-4 0  9993
2 16511 082.9408 280.1644 0024857 147.1952 322.0174 13.75810454564841
Epoch (UTC): 27 March 2017 22:40:57
Eccentricity: 0.0024857
inclination: 82.9408°
perigee height: 960 km
apogee height: 997 km
right ascension of ascending node: 280.1644°
argument of perigee: 147.1952°
revolutions per day: 13.75810454
mean anomaly at epoch: 322.0174°
orbit number at epoch: 56484

The dashed part of the orbit path shows where the satellite is in the earth's shadow,  

DLR